ONEWEB-0598 (55154 NORAD) Tracking and Keplerian Element Data

This shows tracking and keplerian element data for the satellite.

Feedback or suggestion? Click here.




ElementValue
Catalog55154
NameONEWEB-0598
Epoch Orbit130
Epoch Day85.00001157
Epoch Year2023
RAAN257.093
Inclination87.3132
Eccentricity0.0009686
Argument of Perigee356.8526
Mean Anonmoly13.7911
Mean Motion13.93632782
Decay Rate-0.00010273
L11 55154U 23004Q 23085.00001157 -.00010273 00000+0 -78479-2 0 9992
L22 55154 87.3132 257.0930 0009686 356.8526 13.7911 13.93632782 1306



Live tracking and technical data element details for ONEWEB-0598 (NORAD 55154). ONEWEB-0598 can be tracked NOW for your location showing map with azimuth and elevation plus other details from your city location.







IsCatalogInMostPopularTable: catalog: 55154, numindb: 12
Update: records affected: 1



GetName: 55154 ONEWEB-0598

Hit Count: updated at: Mon, 27 Mar 2023 07:32:12 GMT